TimeEST,TemperatureF,Dew PointF,Humidity,Sea Level PressureIn,VisibilityMPH,Wind Direction,Wind SpeedMPH,Gust SpeedMPH,PrecipitationIn,Events,Conditions,WindDirDegrees,DateUTC
12:51 AM,37.9,23.0,55,30.47,10.0,Variable,5.8,-,N/A,,Clear,0,2012-11-15 05:51:00
1:51 AM,37.9,23.0,55,30.43,10.0,NE,9.2,-,N/A,,Clear,50,2012-11-15 06:51:00
2:51 AM,37.0,21.9,54,30.44,10.0,NE,5.8,-,N/A,,Clear,50,2012-11-15 07:51:00
3:51 AM,37.9,21.9,53,30.43,10.0,Variable,5.8,-,N/A,,Clear,0,2012-11-15 08:51:00
4:51 AM,36.0,23.0,59,30.44,10.0,Calm,Calm,-,N/A,,Clear,0,2012-11-15 09:51:00
5:51 AM,36.0,24.1,62,30.43,10.0,Variable,4.6,-,N/A,,Clear,0,2012-11-15 10:51:00
6:51 AM,36.0,25.0,64,30.44,10.0,Variable,4.6,-,N/A,,Clear,0,2012-11-15 11:51:00
7:51 AM,37.0,26.1,65,30.44,10.0,ENE,10.4,-,N/A,,Clear,60,2012-11-15 12:51:00
8:51 AM,39.0,28.0,65,30.42,10.0,NE,8.1,-,N/A,,Clear,40,2012-11-15 13:51:00
9:51 AM,39.9,28.9,65,30.43,10.0,East,11.5,16.1,N/A,,Partly Cloudy,80,2012-11-15 14:51:00
10:51 AM,43.0,27.0,53,30.42,10.0,Variable,4.6,-,N/A,,Clear,0,2012-11-15 15:51:00
11:51 AM,44.1,26.1,49,30.39,10.0,Variable,3.5,-,N/A,,Clear,0,2012-11-15 16:51:00
12:51 PM,45.0,25.0,46,30.35,10.0,Variable,4.6,-,N/A,,Clear,0,2012-11-15 17:51:00
1:51 PM,44.1,27.0,51,30.36,10.0,ENE,4.6,-,N/A,,Clear,70,2012-11-15 18:51:00
2:51 PM,44.1,27.0,51,30.35,10.0,Calm,Calm,-,N/A,,Clear,0,2012-11-15 19:51:00
3:51 PM,44.1,24.1,45,30.35,10.0,NE,5.8,-,N/A,,Clear,40,2012-11-15 20:51:00
4:51 PM,43.0,23.0,45,30.34,10.0,Calm,Calm,-,N/A,,Clear,0,2012-11-15 21:51:00
5:51 PM,42.1,24.1,49,30.34,10.0,NE,3.5,-,N/A,,Clear,50,2012-11-15 22:51:00
6:51 PM,42.1,24.1,49,30.35,10.0,Variable,4.6,-,N/A,,Clear,0,2012-11-15 23:51:00
7:51 PM,41.0,24.1,51,30.34,10.0,NE,4.6,-,N/A,,Clear,50,2012-11-16 00:51:00
8:51 PM,41.0,26.1,55,30.33,10.0,NNE,4.6,-,N/A,,Clear,20,2012-11-16 01:51:00
9:51 PM,39.9,25.0,55,30.32,10.0,NNE,4.6,-,N/A,,Clear,30,2012-11-16 02:51:00
10:51 PM,39.9,25.0,55,30.31,10.0,ENE,4.6,-,N/A,,Clear,60,2012-11-16 03:51:00
11:51 PM,39.0,25.0,57,30.30,10.0,Calm,Calm,-,N/A,,Clear,0,2012-11-16 04:51:00